Time,TemperatureF,DewpointF,PressureIn,WindDirection,WindDirectionDegrees,WindSpeedMPH,WindSpeedGustMPH,Humidity,HourlyPrecipIn,Conditions,Clouds,dailyrainin,SoftwareType,DateUTC
2013-02-23 00:01:00,21.0,8.0,-100.00,NNW,338,5.0,10.0,56,0.00,,,0.00,,2013-02-23 07:01:00,
2013-02-23 00:11:00,21.0,8.0,-100.00,NNW,338,5.0,10.0,56,0.00,,,0.00,,2013-02-23 07:11:00,
2013-02-23 00:21:00,21.0,8.0,-100.00,NNW,338,5.0,10.0,56,0.00,,,0.00,,2013-02-23 07:21:00,
2013-02-23 00:32:00,21.0,8.0,-100.00,NNW,338,5.0,10.0,56,0.00,,,0.00,,2013-02-23 07:32:00,
2013-02-23 00:40:00,23.0,9.0,-100.00,NW,322,6.0,18.0,54,0.00,,,0.00,,2013-02-23 07:40:00,
2013-02-23 01:01:00,23.0,9.0,-100.00,NW,322,6.0,18.0,54,0.00,,,0.00,,2013-02-23 08:01:00,
2013-02-23 01:11:00,23.0,9.0,-100.00,NW,322,6.0,18.0,54,0.00,,,0.00,,2013-02-23 08:11:00,
2013-02-23 01:21:00,23.0,9.0,-100.00,NW,322,6.0,18.0,54,0.00,,,0.00,,2013-02-23 08:21:00,
2013-02-23 01:31:00,23.0,9.0,-100.00,NW,322,6.0,18.0,54,0.00,,,0.00,,2013-02-23 08:31:00,
2013-02-23 01:40:00,21.0,7.0,-100.00,WNW,298,2.0,12.0,54,0.00,,,0.00,,2013-02-23 08:40:00,
2013-02-23 02:01:00,21.0,7.0,-100.00,WNW,298,2.0,12.0,54,0.00,,,0.00,,2013-02-23 09:01:00,
2013-02-23 02:11:00,21.0,7.0,-100.00,WNW,298,2.0,12.0,54,0.00,,,0.00,,2013-02-23 09:11:00,
2013-02-23 02:21:00,21.0,7.0,-100.00,WNW,298,2.0,12.0,54,0.00,,,0.00,,2013-02-23 09:21:00,
2013-02-23 02:31:00,21.0,7.0,-100.00,WNW,298,2.0,12.0,54,0.00,,,0.00,,2013-02-23 09:31:00,
2013-02-23 02:40:00,17.0,7.0,-100.00,SSE,160,3.0,10.0,63,0.00,,,0.00,,2013-02-23 09:40:00,
2013-02-23 03:01:00,17.0,7.0,-100.00,SSE,160,3.0,10.0,63,0.00,,,0.00,,2013-02-23 10:01:00,
2013-02-23 03:11:00,17.0,7.0,-100.00,SSE,160,3.0,10.0,63,0.00,,,0.00,,2013-02-23 10:11:00,
2013-02-23 03:21:00,17.0,7.0,-100.00,SSE,160,3.0,10.0,63,0.00,,,0.00,,2013-02-23 10:21:00,
2013-02-23 03:32:00,17.0,7.0,-100.00,SSE,160,3.0,10.0,63,0.00,,,0.00,,2013-02-23 10:32:00,
2013-02-23 03:40:00,16.0,9.0,-100.00,SW,223,3.0,5.0,75,0.00,,,0.00,,2013-02-23 10:40:00,
2013-02-23 04:02:00,16.0,9.0,-100.00,SW,223,3.0,5.0,75,0.00,,,0.00,,2013-02-23 11:02:00,
2013-02-23 04:11:00,16.0,9.0,-100.00,SW,223,3.0,5.0,75,0.00,,,0.00,,2013-02-23 11:11:00,
2013-02-23 04:21:00,16.0,9.0,-100.00,SW,223,3.0,5.0,75,0.00,,,0.00,,2013-02-23 11:21:00,
2013-02-23 04:32:00,16.0,9.0,-100.00,SW,223,3.0,5.0,75,0.00,,,0.00,,2013-02-23 11:32:00,
2013-02-23 04:40:00,12.0,5.0,-100.00,NW,309,1.0,5.0,74,0.00,,,0.00,,2013-02-23 11:40:00,
2013-02-23 05:02:00,12.0,5.0,-100.00,NW,309,1.0,5.0,74,0.00,,,0.00,,2013-02-23 12:02:00,
2013-02-23 05:11:00,12.0,5.0,-100.00,NW,309,1.0,5.0,74,0.00,,,0.00,,2013-02-23 12:11:00,
2013-02-23 05:21:00,12.0,5.0,-100.00,NW,309,1.0,5.0,74,0.00,,,0.00,,2013-02-23 12:21:00,
2013-02-23 05:32:00,12.0,5.0,-100.00,NW,309,1.0,5.0,74,0.00,,,0.00,,2013-02-23 12:32:00,
2013-02-23 05:40:00,9.0,3.0,-100.00,WNW,303,2.0,5.0,77,0.00,,,0.00,,2013-02-23 12:40:00,
2013-02-23 06:01:00,9.0,3.0,-100.00,WNW,303,2.0,5.0,77,0.00,,,0.00,,2013-02-23 13:01:00,
2013-02-23 06:11:00,9.0,3.0,-100.00,WNW,303,2.0,5.0,77,0.00,,,0.00,,2013-02-23 13:11:00,
2013-02-23 06:22:00,9.0,3.0,-100.00,WNW,303,2.0,5.0,77,0.00,,,0.00,,2013-02-23 13:22:00,
2013-02-23 06:40:00,9.0,5.0,-100.00,WNW,287,2.0,5.0,82,0.00,,,0.00,,2013-02-23 13:40:00,
2013-02-23 07:02:00,9.0,5.0,-100.00,WNW,287,2.0,5.0,82,0.00,,,0.00,,2013-02-23 14:02:00,
2013-02-23 07:11:00,9.0,5.0,-100.00,WNW,287,2.0,5.0,82,0.00,,,0.00,,2013-02-23 14:11:00,
2013-02-23 07:21:00,9.0,5.0,-100.00,WNW,287,2.0,5.0,82,0.00,,,0.00,,2013-02-23 14:21:00,
2013-02-23 07:32:00,9.0,5.0,-100.00,WNW,287,2.0,5.0,82,0.00,,,0.00,,2013-02-23 14:32:00,
2013-02-23 07:40:00,18.0,11.0,-100.00,NW,310,0.0,4.0,72,0.00,,,0.00,,2013-02-23 14:40:00,
2013-02-23 08:02:00,18.0,11.0,-100.00,NW,310,0.0,4.0,72,0.00,,,0.00,,2013-02-23 15:02:00,
2013-02-23 08:11:00,18.0,11.0,-100.00,NW,310,0.0,4.0,72,0.00,,,0.00,,2013-02-23 15:11:00,
2013-02-23 08:22:00,18.0,11.0,-100.00,NW,310,0.0,4.0,72,0.00,,,0.00,,2013-02-23 15:22:00,
2013-02-23 08:32:00,18.0,11.0,-100.00,NW,310,0.0,4.0,72,0.00,,,0.00,,2013-02-23 15:32:00,
2013-02-23 08:40:00,26.0,13.0,-100.00,South,178,2.0,8.0,58,0.00,,,0.00,,2013-02-23 15:40:00,
2013-02-23 09:01:00,26.0,13.0,-100.00,South,178,2.0,8.0,58,0.00,,,0.00,,2013-02-23 16:01:00,
2013-02-23 09:11:00,26.0,13.0,-100.00,South,178,2.0,8.0,58,0.00,,,0.00,,2013-02-23 16:11:00,
2013-02-23 09:21:00,26.0,13.0,-100.00,South,178,2.0,8.0,58,0.00,,,0.00,,2013-02-23 16:21:00,
2013-02-23 09:31:00,26.0,13.0,-100.00,South,178,2.0,8.0,58,0.00,,,0.00,,2013-02-23 16:31:00,
2013-02-23 09:40:00,32.0,15.0,-100.00,ESE,121,3.0,6.0,49,0.00,,,0.00,,2013-02-23 16:40:00,
2013-02-23 10:01:00,32.0,15.0,-100.00,ESE,121,3.0,6.0,49,0.00,,,0.00,,2013-02-23 17:01:00,
2013-02-23 10:11:00,32.0,15.0,-100.00,ESE,121,3.0,6.0,49,0.00,,,0.00,,2013-02-23 17:11:00,
2013-02-23 10:21:00,32.0,15.0,-100.00,ESE,121,3.0,6.0,49,0.00,,,0.00,,2013-02-23 17:21:00,
2013-02-23 10:32:00,32.0,15.0,-100.00,ESE,121,3.0,6.0,49,0.00,,,0.00,,2013-02-23 17:32:00,
2013-02-23 10:40:00,34.0,14.0,-100.00,ESE,111,3.0,8.0,44,0.00,,,0.00,,2013-02-23 17:40:00,
2013-02-23 11:01:00,34.0,14.0,-100.00,ESE,111,3.0,8.0,44,0.00,,,0.00,,2013-02-23 18:01:00,
2013-02-23 11:12:00,34.0,14.0,-100.00,ESE,111,3.0,8.0,44,0.00,,,0.00,,2013-02-23 18:12:00,
2013-02-23 11:22:00,34.0,14.0,-100.00,ESE,111,3.0,8.0,44,0.00,,,0.00,,2013-02-23 18:22:00,
2013-02-23 11:32:00,34.0,14.0,-100.00,ESE,111,3.0,8.0,44,0.00,,,0.00,,2013-02-23 18:32:00,
2013-02-23 11:40:00,36.0,16.0,-100.00,ESE,121,3.0,8.0,44,0.00,,,0.00,,2013-02-23 18:40:00,
2013-02-23 12:01:00,36.0,16.0,-100.00,ESE,121,3.0,8.0,44,0.00,,,0.00,,2013-02-23 19:01:00,
2013-02-23 12:11:00,36.0,16.0,-100.00,ESE,121,3.0,8.0,44,0.00,,,0.00,,2013-02-23 19:11:00,
2013-02-23 12:21:00,36.0,16.0,-100.00,ESE,121,3.0,8.0,44,0.00,,,0.00,,2013-02-23 19:21:00,
2013-02-23 12:32:00,36.0,16.0,-100.00,ESE,121,3.0,8.0,44,0.00,,,0.00,,2013-02-23 19:32:00,
2013-02-23 12:40:00,40.0,19.0,-100.00,SE,133,3.0,8.0,42,0.00,,,0.00,,2013-02-23 19:40:00,
2013-02-23 13:01:00,40.0,19.0,-100.00,SE,133,3.0,8.0,42,0.00,,,0.00,,2013-02-23 20:01:00,
2013-02-23 13:11:00,40.0,19.0,-100.00,SE,133,3.0,8.0,42,0.00,,,0.00,,2013-02-23 20:11:00,
2013-02-23 13:21:00,40.0,19.0,-100.00,SE,133,3.0,8.0,42,0.00,,,0.00,,2013-02-23 20:21:00,
2013-02-23 13:32:00,40.0,19.0,-100.00,SE,133,3.0,8.0,42,0.00,,,0.00,,2013-02-23 20:32:00,
2013-02-23 13:40:00,40.0,16.0,-100.00,SE,144,5.0,11.0,37,0.00,,,0.00,,2013-02-23 20:40:00,
2013-02-23 14:01:00,40.0,16.0,-100.00,SE,144,5.0,11.0,37,0.00,,,0.00,,2013-02-23 21:01:00,
2013-02-23 14:11:00,40.0,16.0,-100.00,SE,144,5.0,11.0,37,0.00,,,0.00,,2013-02-23 21:11:00,
2013-02-23 14:22:00,40.0,16.0,-100.00,SE,144,5.0,11.0,37,0.00,,,0.00,,2013-02-23 21:22:00,
2013-02-23 14:32:00,40.0,16.0,-100.00,SE,144,5.0,11.0,37,0.00,,,0.00,,2013-02-23 21:32:00,
2013-02-23 14:40:00,42.0,15.0,-100.00,SSE,155,4.0,11.0,33,0.00,,,0.00,,2013-02-23 21:40:00,
2013-02-23 15:01:00,42.0,15.0,-100.00,SSE,155,4.0,11.0,33,0.00,,,0.00,,2013-02-23 22:01:00,
2013-02-23 15:11:00,42.0,15.0,-100.00,SSE,155,4.0,11.0,33,0.00,,,0.00,,2013-02-23 22:11:00,
2013-02-23 15:22:00,42.0,15.0,-100.00,SSE,155,4.0,11.0,33,0.00,,,0.00,,2013-02-23 22:22:00,
2013-02-23 15:31:00,42.0,15.0,-100.00,SSE,155,4.0,11.0,33,0.00,,,0.00,,2013-02-23 22:31:00,
2013-02-23 15:40:00,43.0,13.0,-100.00,SE,133,4.0,8.0,29,0.00,,,0.00,,2013-02-23 22:40:00,
2013-02-23 16:01:00,43.0,13.0,-100.00,SE,133,4.0,8.0,29,0.00,,,0.00,,2013-02-23 23:01:00,
2013-02-23 16:11:00,43.0,13.0,-100.00,SE,133,4.0,8.0,29,0.00,,,0.00,,2013-02-23 23:11:00,
2013-02-23 16:21:00,43.0,13.0,-100.00,SE,133,4.0,8.0,29,0.00,,,0.00,,2013-02-23 23:21:00,
2013-02-23 16:31:00,43.0,13.0,-100.00,SE,133,4.0,8.0,29,0.00,,,0.00,,2013-02-23 23:31:00,
2013-02-23 16:40:00,42.0,13.0,-100.00,ENE,58,3.0,8.0,30,0.00,,,0.00,,2013-02-23 23:40:00,
2013-02-23 17:01:00,42.0,13.0,-100.00,ENE,58,3.0,8.0,30,0.00,,,0.00,,2013-02-24 00:01:00,
2013-02-23 17:11:00,42.0,13.0,-100.00,ENE,58,3.0,8.0,30,0.00,,,0.00,,2013-02-24 00:11:00,
2013-02-23 17:22:00,42.0,13.0,-100.00,ENE,58,3.0,8.0,30,0.00,,,0.00,,2013-02-24 00:22:00,
2013-02-23 17:32:00,42.0,13.0,-100.00,ENE,58,3.0,8.0,30,0.00,,,0.00,,2013-02-24 00:32:00,
2013-02-23 17:40:00,38.0,11.0,-100.00,North,355,2.0,6.0,33,0.00,,,0.00,,2013-02-24 00:40:00,
2013-02-23 18:01:00,38.0,11.0,-100.00,North,355,2.0,6.0,33,0.00,,,0.00,,2013-02-24 01:01:00,
2013-02-23 18:11:00,38.0,11.0,-100.00,North,355,2.0,6.0,33,0.00,,,0.00,,2013-02-24 01:11:00,
2013-02-23 18:22:00,38.0,11.0,-100.00,North,355,2.0,6.0,33,0.00,,,0.00,,2013-02-24 01:22:00,
2013-02-23 18:31:00,38.0,11.0,-100.00,North,355,2.0,6.0,33,0.00,,,0.00,,2013-02-24 01:31:00,
2013-02-23 18:40:00,30.0,13.0,-100.00,WNW,301,1.0,4.0,49,0.00,,,0.00,,2013-02-24 01:40:00,
2013-02-23 19:01:00,30.0,13.0,-100.00,WNW,301,1.0,4.0,49,0.00,,,0.00,,2013-02-24 02:01:00,
2013-02-23 19:40:00,31.0,13.0,-100.00,SSW,206,4.0,7.0,46,0.00,,,0.00,,2013-02-24 02:40:00,
2013-02-23 20:02:00,31.0,13.0,-100.00,SSW,206,4.0,7.0,46,0.00,,,0.00,,2013-02-24 03:02:00,
2013-02-23 20:11:00,31.0,13.0,-100.00,SSW,206,4.0,7.0,46,0.00,,,0.00,,2013-02-24 03:11:00,
2013-02-23 20:21:00,31.0,13.0,-100.00,SSW,206,4.0,7.0,46,0.00,,,0.00,,2013-02-24 03:21:00,
2013-02-23 20:32:00,31.0,13.0,-100.00,SSW,206,4.0,7.0,46,0.00,,,0.00,,2013-02-24 03:32:00,
2013-02-23 20:40:00,35.0,12.0,-100.00,SW,235,5.0,12.0,38,0.00,,,0.00,,2013-02-24 03:40:00,
2013-02-23 21:01:00,35.0,12.0,-100.00,SW,235,5.0,12.0,38,0.00,,,0.00,,2013-02-24 04:01:00,
2013-02-23 21:11:00,35.0,12.0,-100.00,SW,235,5.0,12.0,38,0.00,,,0.00,,2013-02-24 04:11:00,
2013-02-23 21:21:00,35.0,12.0,-100.00,SW,235,5.0,12.0,38,0.00,,,0.00,,2013-02-24 04:21:00,
2013-02-23 21:32:00,35.0,12.0,-100.00,SW,235,5.0,12.0,38,0.00,,,0.00,,2013-02-24 04:32:00,
2013-02-23 21:40:00,33.0,13.0,-100.00,SSW,201,4.0,9.0,43,0.00,,,0.00,,2013-02-24 04:40:00,
2013-02-23 22:01:00,33.0,13.0,-100.00,SSW,201,4.0,9.0,43,0.00,,,0.00,,2013-02-24 05:01:00,
2013-02-23 22:11:00,33.0,13.0,-100.00,SSW,201,4.0,9.0,43,0.00,,,0.00,,2013-02-24 05:11:00,
2013-02-23 22:22:00,33.0,13.0,-100.00,SSW,201,4.0,9.0,43,0.00,,,0.00,,2013-02-24 05:22:00,
2013-02-23 22:32:00,33.0,13.0,-100.00,SSW,201,4.0,9.0,43,0.00,,,0.00,,2013-02-24 05:32:00,
2013-02-23 22:40:00,34.0,12.0,-100.00,SSW,202,4.0,8.0,40,0.00,,,0.00,,2013-02-24 05:40:00,
2013-02-23 23:01:00,34.0,12.0,-100.00,SSW,202,4.0,8.0,40,0.00,,,0.00,,2013-02-24 06:01:00,
2013-02-23 23:11:00,34.0,12.0,-100.00,SSW,202,4.0,8.0,40,0.00,,,0.00,,2013-02-24 06:11:00,
2013-02-23 23:21:00,34.0,12.0,-100.00,SSW,202,4.0,8.0,40,0.00,,,0.00,,2013-02-24 06:21:00,
2013-02-23 23:31:00,34.0,12.0,-100.00,SSW,202,4.0,8.0,40,0.00,,,0.00,,2013-02-24 06:31:00,
2013-02-23 23:40:00,36.0,18.0,-100.00,SSW,195,6.0,10.0,47,0.00,,,0.00,,2013-02-24 06:40:00,